SCP
-0 0 0 0 0 0 0 0 0 0 -0 -0 -0 -0 -0 0 -0 0 0 -0 -0 0 0 0 0 0 0 0 0 0 0 0 0 0 0 0 0 0
-0 -0 -0 -0 0 0 -0 0 0 0 0 0 -0 0 -0 0 -0 0 0 -0 -0 -0 -0 0 0 0 0 0 0 0 0 0 0 0 0 0 0 0
-0 0 0 0 0 0 -0 -0 0 0 -0 -0 -0 0 -0 -0 -0 -0 0 0 0 -0 -0 -0 0 0 0 0 0 0 0 0 0 0 0 0 0 0
-0 -0 -0 -0 -0 -0 0 0 0 0 0 0 -0 -0 -0 -0 -0 -0 -0 0 0 -0 -0 -0 0 0 0 0 0 0 0 0 0 0 0 0 0 0
-0 -0 -0 -0 0 0 0 0 -0 0 0 0 0 0 -0 0 -0 -0 0 -0 -0 0 -0 0 0 0 0 0 0 0 0 0 0 0 0 0 0 0
0 -0 0 0 0 0 0 0 0 0 0 0 0 0 0 0 0 0 0 -0 -0 0 -0 0 0 0 0 0 0 0 0 0 0 0 0 0 0 0
-0 0 0 -0 0 0 -0 0 0 0 -0 -0 0 0 0 0 1 0 -0 -0 0 0 -0 0 0 0 0 0 0 0 0 0 0 0 0 0 0 0
0 0 0 0 0 0 0 -0 0 0 0 0 0 0 0 0 0 0 0 0 0 0 0 0 0 0 1 1 0 0 0 0 0 0 0 0 0 0
1 0 0 0 0 0 0 0 -0 -0 0 0 0 0 0 0 0 0 0 0 0 0 0 0 0 0 0 0 0 0 0 0 0 0 0 0 0 0
1 1 1 0 0 1 1 0 0 0 0 0 0 1 0 0 1 1 1 1 0 1 1 0 0 0 0 1 0 0 0 0 0 0 0 0 0 0
2 1 1 2 1 1 1 1 1 1 0 0 0 0 1 1 0 0 0 0 0 0 0 0 0 0 0 1 0 0 0 0 0 0 0 0 0 0
1 1 1 1 2 1 2 2 1 1 2 1 1 0 0 0 0 0 0 0 0 -0 0 0 0 0 0 0 0 0 0 0 0 0 0 0 0 0
1 1 1 1 0 1 1 2 1 2 2 1 0 0 0 1 1 1 1 1 0 0 0 0 0 0 0 0 0 1 1 0 0 0 0 0 0 0
1 1 1 0 0 0 0 0 1 2 1 0 0 0 0 0 0 1 2 3 2 1 1 1 1 1 0 0 0 0 2 1 0 1 0 0 0 0
1 1 0 0 0 0 0 0 0 1 1 1 1 1 1 0 1 1 2 3 2 2 2 1 2 1 1 1 1 1 1 2 2 1 1 0 0 0
0 0 0 0 0 0 1 0 0 2 2 2 1 1 1 1 1 1 1 1 1 1 2 2 2 3 1 1 1 1 1 1 3 2 1 1 0 0
0 1 1 1 1 2 2 3 4 2 2 2 2 2 2 1 1 1 1 1 1 1 1 1 4 4 3 2 1 1 1 2 3 3 3 1 1 0
0 1 1 1 2 1 2 2 3 2 3 2 1 1 2 2 2 2 2 1 1 1 1 1 1 2 3 3 3 3 3 2 3 5 3 2 1 1
0 2 2 2 2 2 2 3 3 3 4 2 2 3 2 2 1 1 2 2 1 1 1 1 1 1 1 1 2 3 3 2 3 5 3 3 2 1
0 2 3 2 2 2 2 2 3 3 5 5 4 3 3 2 2 2 2 1 1 1 1 1 2 3 3 2 1 1 0 3 5 5 4 2 2 0
0 0 2 2 3 3 2 2 3 5 4 3 3 3 3 3 2 1 1 0 1 2 3 2 3 3 2 2 2 2 3 0 2 3 2 2 2 1
0 1 0 1 2 2 2 3 3 3 3 2 2 3 3 3 2 3 3 2 3 3 3 3 3 3 2 3 2 2 3 4 0 0 0 0 7 3
0 0 0 0 0 1 1 2 3 2 1 1 2 3 4 3 2 2 2 1 2 1 2 2 2 2 2 2 2 2 2 3 4 2 2 0 0 0
Wind_Speed_500mb
18 25 20 10 11 7 8 8 15 20 7 6 5 14 9 13 24 30 30 31 36 46 51 53 53 49 48 41 39 32 33 39 38 42 45 46 44 36
16 23 23 18 14 15 14 13 12 17 23 15 11 19 31 31 22 39 35 32 35 40 51 50 54 50 47 42 37 35 38 44 46 48 49 48 41 30
28 20 21 29 18 17 18 20 20 20 26 27 26 22 22 39 31 35 33 29 31 43 46 55 52 51 50 44 38 41 43 47 49 48 47 44 37 30
23 25 25 23 30 31 27 24 23 26 22 34 34 34 30 31 37 43 32 27 29 30 44 47 51 52 54 50 45 42 45 47 50 44 45 41 30 27
23 23 23 25 29 28 28 28 26 25 24 25 30 28 29 28 29 30 33 31 29 31 38 37 44 48 51 50 50 45 44 45 49 43 42 38 27 20
28 28 27 28 31 31 29 33 31 31 27 29 29 28 26 25 28 26 28 28 30 32 30 30 44 47 48 43 45 43 41 45 48 44 41 38 25 16
36 34 34 35 36 37 30 29 31 29 28 29 30 29 26 24 21 27 32 32 33 30 30 28 32 39 44 38 42 46 36 41 46 44 39 37 26 15
43 40 41 41 46 43 40 35 42 39 41 34 33 33 40 38 30 31 32 35 38 26 33 38 27 28 29 25 49 45 33 37 42 45 38 35 29 17
50 48 42 39 44 43 41 40 40 43 46 44 47 46 44 41 41 44 35 37 41 40 37 32 26 29 28 40 37 47 33 35 37 41 40 31 29 18
56 54 53 51 51 40 47 45 49 50 51 50 52 51 49 46 40 39 42 43 44 40 35 42 34 33 30 38 44 46 40 39 36 34 38 30 26 19
75 71 66 62 63 60 59 56 56 55 45 53 57 56 54 51 49 47 49 40 48 43 34 39 39 37 33 39 48 40 45 44 35 31 31 32 29 22
68 76 82 82 78 74 71 69 75 74 64 57 57 57 59 60 55 54 58 55 51 50 37 38 38 37 39 34 37 44 45 48 37 33 29 27 28 23
69 69 71 70 74 80 85 88 90 80 73 71 69 65 61 57 57 56 52 49 51 56 43 44 43 40 39 40 37 45 43 53 49 40 27 24 26 24
76 69 67 69 75 74 72 76 75 73 75 72 70 68 64 61 55 54 60 62 61 63 59 51 54 43 46 48 44 35 38 41 38 44 44 27 24 24
82 83 71 72 68 65 69 74 73 72 76 81 78 80 71 67 62 59 57 55 58 63 72 63 62 59 50 51 50 42 37 41 45 46 37 43 28 25
68 72 85 86 88 82 77 83 83 82 86 85 80 78 72 64 63 59 58 56 59 57 57 52 52 51 53 46 47 52 48 44 42 42 34 41 39 31
40 52 60 70 90 98 92 86 69 67 71 80 79 68 64 62 64 60 59 58 59 56 53 48 50 52 55 52 46 47 48 46 51 51 51 51 45 40
64 65 56 54 61 62 63 67 69 69 69 63 55 57 69 64 61 59 59 60 60 57 55 49 45 50 54 57 52 55 52 52 49 51 54 55 48 40
76 73 68 69 61 63 66 67 68 67 69 59 65 59 56 57 58 60 59 56 58 59 59 55 47 47 52 58 55 63 55 46 49 54 62 59 60 42
59 65 73 73 75 70 73 75 70 57 58 71 77 73 66 61 61 61 59 58 58 58 59 53 51 50 52 56 55 52 46 40 48 59 61 49 46 40
66 58 60 73 70 69 66 65 70 74 77 77 79 78 68 64 61 59 57 56 57 51 49 47 51 53 56 52 52 61 49 57 56 53 54 53 46 44
59 61 66 71 77 81 76 76 76 75 75 76 78 75 66 62 59 59 53 50 52 57 66 70 70 60 55 54 54 53 54 56 54 57 58 63 63 62
56 60 55 52 68 48 66 66 64 75 75 76 94 72 66 61 56 52 54 61 67 67 65 59 55 56 60 56 55 53 48 44 44 54 58 51 65 66
Wind_Direction_500mb
229 212 204 224 223 238 237 268 307 316 251 201 254 285 300 315 299 309 319 318 339 337 333 340 346 347 351 352 353 354 350 345 340 335 332 326 314 299
220 238 232 243 235 245 252 259 261 282 295 292 315 282 291 297 314 297 312 330 339 324 324 335 340 349 351 352 358 356 349 347 345 342 341 339 332 319
217 225 244 234 240 242 251 249 257 265 269 272 286 299 303 311 303 310 317 333 325 315 325 332 336 348 352 351 355 358 351 349 349 349 349 350 356 358
231 234 238 243 256 246 245 256 258 262 272 279 277 281 291 293 309 316 317 311 311 320 325 326 331 342 352 351 348 352 354 354 352 354 355 359 10 10
235 240 243 246 245 239 240 250 256 267 270 272 280 281 281 283 294 305 309 314 327 314 318 320 321 338 342 341 343 347 355 356 356 358 358 3 11 23
240 242 246 250 250 253 256 244 257 257 265 272 278 282 284 287 286 299 300 304 307 305 318 319 323 327 327 327 333 343 350 351 358 359 360 1 9 20
239 244 250 249 249 249 245 254 250 261 264 269 273 276 280 285 287 293 298 305 298 308 311 303 316 318 316 314 323 338 342 352 354 359 -0 358 6 13
242 245 250 250 254 256 252 241 239 243 254 261 268 270 273 286 288 288 290 296 300 303 301 301 316 308 306 291 315 324 331 344 353 357 359 356 359 13
241 243 245 251 257 267 265 256 254 252 258 264 266 270 274 277 281 285 287 281 287 292 298 302 305 306 300 285 297 325 324 341 346 352 355 353 355 6
236 245 251 243 235 250 262 256 263 264 261 263 270 279 282 285 283 283 289 295 299 310 306 285 299 300 304 285 300 308 322 329 338 344 354 350 349 357
248 242 238 245 253 248 241 246 253 253 261 274 280 288 293 290 285 278 268 273 279 283 284 286 291 295 296 296 294 288 303 319 319 329 340 345 340 341
252 256 249 246 247 252 255 254 254 258 259 257 260 271 275 279 281 276 273 263 266 275 278 284 286 290 294 297 286 291 298 314 314 314 323 325 331 320
247 247 253 261 257 255 255 256 259 263 264 267 268 269 271 272 277 283 277 272 275 265 268 273 276 279 278 285 286 284 295 307 312 311 307 308 317 314
240 248 253 254 256 259 260 262 265 266 265 260 259 261 261 263 266 268 271 273 273 278 283 263 266 267 272 277 280 287 277 291 300 309 305 313 299 302
251 246 243 249 254 256 256 260 263 263 261 261 257 255 254 257 261 261 262 268 271 271 277 278 272 276 267 265 272 275 272 276 284 286 276 292 288 290
265 260 255 248 245 248 256 255 252 253 255 258 258 259 258 254 254 257 258 257 259 265 277 282 282 284 284 282 263 265 268 267 276 276 273 274 286 282
271 271 262 257 251 251 249 247 251 260 260 256 249 250 251 251 250 252 254 256 257 259 264 268 278 276 279 278 263 267 265 265 271 261 262 265 276 275
259 259 261 251 250 251 250 248 246 249 248 252 256 253 248 249 249 251 252 253 256 258 260 262 267 272 269 271 265 263 259 260 262 260 257 262 267 265
267 251 254 260 254 252 250 248 245 246 246 245 243 247 248 248 249 249 251 253 255 255 257 259 255 265 272 273 269 275 279 275 248 250 254 259 262 254
281 253 256 258 252 252 253 251 249 251 245 244 247 244 241 246 248 249 249 249 250 252 255 256 254 255 259 265 274 265 279 264 256 252 258 253 264 248
280 266 257 258 252 251 257 257 254 249 253 254 253 248 253 240 243 244 244 247 250 252 249 253 255 257 265 268 272 268 259 260 260 261 264 249 241 262
280 267 264 262 252 247 258 258 263 260 260 253 248 249 249 243 238 238 240 247 251 254 256 263 267 268 267 260 264 268 269 271 266 256 254 244 237 241
279 266 254 253 269 252 258 257 259 260 263 262 255 238 243 246 246 247 252 256 263 268 269 267 269 271 267 269 270 271 268 271 269 271 273 256 243 247
Wind_Speed_850mb
18 25 20 10 11 7 8 8 15 20 7 6 5 14 9 13 24 30 30 31 36 46 51 53 53 49 48 41 39 32 33 39 38 42 45 46 44 36
16 23 23 18 14 15 14 13 12 17 23 15 11 19 31 31 22 39 35 32 35 40 51 50 54 50 47 42 37 35 38 44 46 48 49 48 41 30
28 20 21 29 18 17 18 20 20 20 26 27 26 22 22 39 31 35 33 29 31 43 46 55 52 51 50 44 38 41 43 47 49 48 47 44 37 30
23 25 25 23 30 31 27 24 23 26 22 34 34 34 30 31 37 43 32 27 29 30 44 47 51 52 54 50 45 42 45 47 50 44 45 41 30 27
23 23 23 25 29 28 28 28 26 25 24 25 30 28 29 28 29 30 33 31 29 31 38 37 44 48 51 50 50 45 44 45 49 43 42 38 27 20
28 28 27 28 31 31 29 33 31 31 27 29 29 28 26 25 28 26 28 28 30 32 30 30 44 47 48 43 45 43 41 45 48 44 41 38 25 16
36 34 34 35 36 37 30 29 31 29 28 29 30 29 26 24 21 27 32 32 33 30 30 28 32 39 44 38 42 46 36 41 46 44 39 37 26 15
43 40 41 41 46 43 40 35 42 39 41 34 33 33 40 38 30 31 32 35 38 26 33 38 27 28 29 25 49 45 33 37 42 45 38 35 29 17
50 48 42 39 44 43 41 40 40 43 46 44 47 46 44 41 41 44 35 37 41 40 37 32 26 29 28 40 37 47 33 35 37 41 40 31 29 18
56 54 53 51 51 40 47 45 49 50 51 50 52 51 49 46 40 39 42 43 44 40 35 42 34 33 30 38 44 46 40 39 36 34 38 30 26 19
75 71 66 62 63 60 59 56 56 55 45 53 57 56 54 51 49 47 49 40 48 43 34 39 39 37 33 39 48 40 45 44 35 31 31 32 29 22
68 76 82 82 78 74 71 69 75 74 64 57 57 57 59 60 55 54 58 55 51 50 37 38 38 37 39 34 37 44 45 48 37 33 29 27 28 23
69 69 71 70 74 80 85 88 90 80 73 71 69 65 61 57 57 56 52 49 51 56 43 44 43 40 39 40 37 45 43 53 49 40 27 24 26 24
76 69 67 69 75 74 72 76 75 73 75 72 70 68 64 61 55 54 60 62 61 63 59 51 54 43 46 48 44 35 38 41 38 44 44 27 24 24
82 83 71 72 68 65 69 74 73 72 76 81 78 80 71 67 62 59 57 55 58 63 72 63 62 59 50 51 50 42 37 41 45 46 37 43 28 25
68 72 85 86 88 82 77 83 83 82 86 85 80 78 72 64 63 59 58 56 59 57 57 52 52 51 53 46 47 52 48 44 42 42 34 41 39 31
40 52 60 70 90 98 92 86 69 67 71 80 79 68 64 62 64 60 59 58 59 56 53 48 50 52 55 52 46 47 48 46 51 51 51 51 45 40
64 65 56 54 61 62 63 67 69 69 69 63 55 57 69 64 61 59 59 60 60 57 55 49 45 50 54 57 52 55 52 52 49 51 54 55 48 40
76 73 68 69 61 63 66 67 68 67 69 59 65 59 56 57 58 60 59 56 58 59 59 55 47 47 52 58 55 63 55 46 49 54 62 59 60 42
59 65 73 73 75 70 73 75 70 57 58 71 77 73 66 61 61 61 59 58 58 58 59 53 51 50 52 56 55 52 46 40 48 59 61 49 46 40
66 58 60 73 70 69 66 65 70 74 77 77 79 78 68 64 61 59 57 56 57 51 49 47 51 53 56 52 52 61 49 57 56 53 54 53 46 44
59 61 66 71 77 81 76 76 76 75 75 76 78 75 66 62 59 59 53 50 52 57 66 70 70 60 55 54 54 53 54 56 54 57 58 63 63 62
56 60 55 52 68 48 66 66 64 75 75 76 94 72 66 61 56 52 54 61 67 67 65 59 55 56 60 56 55 53 48 44 44 54 58 51 65 66
Wind_Direction_850mb
229 212 204 224 223 238 237 268 307 316 251 201 254 285 300 315 299 309 319 318 339 337 333 340 346 347 351 352 353 354 350 345 340 335 332 326 314 299
220 238 232 243 235 245 252 259 261 282 295 292 315 282 291 297 314 297 312 330 339 324 324 335 340 349 351 352 358 356 349 347 345 342 341 339 332 319
217 225 244 234 240 242 251 249 257 265 269 272 286 299 303 311 303 310 317 333 325 315 325 332 336 348 352 351 355 358 351 349 349 349 349 350 356 358
231 234 238 243 256 246 245 256 258 262 272 279 277 281 291 293 309 316 317 311 311 320 325 326 331 342 352 351 348 352 354 354 352 354 355 359 10 10
235 240 243 246 245 239 240 250 256 267 270 272 280 281 281 283 294 305 309 314 327 314 318 320 321 338 342 341 343 347 355 356 356 358 358 3 11 23
240 242 246 250 250 253 256 244 257 257 265 272 278 282 284 287 286 299 300 304 307 305 318 319 323 327 327 327 333 343 350 351 358 359 360 1 9 20
239 244 250 249 249 249 245 254 250 261 264 269 273 276 280 285 287 293 298 305 298 308 311 303 316 318 316 314 323 338 342 352 354 359 -0 358 6 13
242 245 250 250 254 256 252 241 239 243 254 261 268 270 273 286 288 288 290 296 300 303 301 301 316 308 306 291 315 324 331 344 353 357 359 356 359 13
241 243 245 251 257 267 265 256 254 252 258 264 266 270 274 277 281 285 287 281 287 292 298 302 305 306 300 285 297 325 324 341 346 352 355 353 355 6
236 245 251 243 235 250 262 256 263 264 261 263 270 279 282 285 283 283 289 295 299 310 306 285 299 300 304 285 300 308 322 329 338 344 354 350 349 357
248 242 238 245 253 248 241 246 253 253 261 274 280 288 293 290 285 278 268 273 279 283 284 286 291 295 296 296 294 288 303 319 319 329 340 345 340 341
252 256 249 246 247 252 255 254 254 258 259 257 260 271 275 279 281 276 273 263 266 275 278 284 286 290 294 297 286 291 298 314 314 314 323 325 331 320
247 247 253 261 257 255 255 256 259 263 264 267 268 269 271 272 277 283 277 272 275 265 268 273 276 279 278 285 286 284 295 307 312 311 307 308 317 314
240 248 253 254 256 259 260 262 265 266 265 260 259 261 261 263 266 268 271 273 273 278 283 263 266 267 272 277 280 287 277 291 300 309 305 313 299 302
251 246 243 249 254 256 256 260 263 263 261 261 257 255 254 257 261 261 262 268 271 271 277 278 272 276 267 265 272 275 272 276 284 286 276 292 288 290
265 260 255 248 245 248 256 255 252 253 255 258 258 259 258 254 254 257 258 257 259 265 277 282 282 284 284 282 263 265 268 267 276 276 273 274 286 282
271 271 262 257 251 251 249 247 251 260 260 256 249 250 251 251 250 252 254 256 257 259 264 268 278 276 279 278 263 267 265 265 271 261 262 265 276 275
259 259 261 251 250 251 250 248 246 249 248 252 256 253 248 249 249 251 252 253 256 258 260 262 267 272 269 271 265 263 259 260 262 260 257 262 267 265
267 251 254 260 254 252 250 248 245 246 246 245 243 247 248 248 249 249 251 253 255 255 257 259 255 265 272 273 269 275 279 275 248 250 254 259 262 254
281 253 256 258 252 252 253 251 249 251 245 244 247 244 241 246 248 249 249 249 250 252 255 256 254 255 259 265 274 265 279 264 256 252 258 253 264 248
280 266 257 258 252 251 257 257 254 249 253 254 253 248 253 240 243 244 244 247 250 252 249 253 255 257 265 268 272 268 259 260 260 261 264 249 241 262
280 267 264 262 252 247 258 258 263 260 260 253 248 249 249 243 238 238 240 247 251 254 256 263 267 268 267 260 264 268 269 271 266 256 254 244 237 241
279 266 254 253 269 252 258 257 259 260 263 262 255 238 243 246 246 247 252 256 263 268 269 267 269 271 267 269 270 271 268 271 269 271 273 256 243 247